SCP
0 0 0 -0 0 0 1 1 2 4 7 9 7 4 3 2 2 2 2 3 5 4 3 2 2 2 1 0 0 0 0 1 1 1 1 1 1 0 0 0 0 0 0
0 0 0 0 0 0 2 2 1 2 7 5 3 1 1 1 1 1 2 3 6 5 4 4 4 1 2 1 1 1 1 0 0 0 1 1 0 0 0 0 0 0 0
0 0 0 0 0 0 1 2 1 1 1 1 1 1 1 1 2 3 2 4 6 5 5 3 2 2 1 1 1 1 0 0 0 1 1 0 0 0 0 0 0 0 0
0 0 0 0 0 0 1 1 1 1 1 1 1 1 0 0 0 2 4 7 6 5 4 3 2 2 1 1 1 1 0 0 0 1 1 0 0 0 0 0 0 0 0
0 0 0 0 0 0 0 1 1 0 0 1 0 1 1 1 2 5 5 7 6 5 4 2 2 1 1 1 1 1 0 0 1 0 0 0 0 0 0 0 0 0 0
0 0 0 0 0 0 0 0 0 0 0 0 1 1 2 2 2 6 5 5 4 4 3 2 2 1 1 1 0 1 0 1 1 0 0 0 0 0 0 0 0 0 0
0 0 0 0 0 0 0 0 0 0 0 0 1 1 1 1 2 4 3 2 2 2 2 2 1 1 1 1 0 1 1 0 0 0 0 0 0 0 0 0 0 0 0
-0 0 0 0 0 0 0 0 0 0 0 1 3 3 1 4 2 2 2 2 1 1 1 1 1 1 1 1 1 1 0 0 0 0 0 0 0 0 0 0 0 0 0
0 0 0 0 0 0 0 0 0 0 1 1 3 4 2 3 2 1 1 1 1 1 1 1 1 0 1 1 0 0 0 0 0 0 0 0 0 0 0 0 0 0 0
0 0 0 0 0 0 0 0 0 1 1 2 2 3 2 3 2 1 1 1 1 1 1 1 1 0 0 0 0 0 0 0 0 0 0 0 0 0 0 0 0 0 0
0 0 0 0 1 0 0 0 1 1 2 3 3 2 2 2 2 1 1 1 1 1 1 0 0 0 0 0 0 0 0 0 0 0 0 0 0 0 0 0 0 0 -0
0 0 0 1 5 3 3 2 3 3 3 3 2 2 2 1 1 1 1 1 1 0 0 0 0 0 0 0 0 0 0 0 0 0 0 0 0 0 0 0 0 0 0
0 0 0 0 2 3 4 5 4 3 2 1 1 1 1 1 1 1 1 0 0 0 0 0 0 0 0 0 0 0 0 0 0 0 0 0 0 0 0 0 0 0 0
0 0 0 0 1 1 4 4 4 3 2 1 1 1 1 0 1 1 0 0 0 0 0 0 0 0 0 0 0 0 0 0 0 0 0 0 0 0 0 0 0 0 0
0 -0 -0 0 0 0 2 3 2 2 1 1 0 1 0 0 0 0 0 0 0 0 0 0 0 0 0 0 0 0 0 0 0 0 0 0 0 0 0 0 0 0 0
0 0 0 0 0 0 1 1 1 1 1 0 0 0 0 0 0 0 0 0 0 0 0 0 0 0 0 0 0 0 0 0 0 0 0 0 0 0 0 0 0 0 0
0 0 0 0 0 0 0 0 1 0 0 0 0 0 0 0 0 0 0 0 0 0 0 0 0 0 0 0 0 0 0 0 0 0 0 -0 0 0 0 0 0 0 0
-0 0 0 -0 0 0 0 0 0 0 0 0 0 0 0 0 0 0 0 0 0 0 0 0 0 0 0 0 0 0 0 0 0 0 0 0 0 0 0 0 0 0 0
-0 -0 -0 -0 0 0 0 0 0 0 0 0 0 0 0 0 0 0 0 0 0 0 0 0 -0 -0 0 0 0 0 0 0 -0 -0 0 0 0 0 0 0 0 0 0
0 -0 -0 0 0 0 0 0 0 0 0 -0 0 0 0 0 0 0 0 0 0 0 0 0 -0 -0 0 0 0 0 0 0 -0 -0 0 0 0 0 0 0 0 0 0
-0 -0 -0 -0 0 0 0 0 0 0 -0 0 0 0 0 -0 -0 0 0 0 0 -0 0 0 0 -0 -0 -0 -0 -0 0 0 -0 0 0 0 0 0 0 0 0 0 0
0 -0 -0 0 0 0 0 0 -0 0 0 -0 -0 -0 -0 0 0 -0 0 0 -0 -0 -0 0 -0 -0 -0 -0 -0 -0 -0 -0 -0 0 0 0 0 0 0 0 -0 -0 0
0 -0 -0 -0 0 0 0 -0 0 0 0 -0 -0 -0 0 -0 0 0 0 0 0 0 0 0 0 -0 -0 -0 -0 -0 -0 -0 0 0 0 -0 -0 0 0 0 0 0 0
0 -0 0 0 0 0 0 0 0 0 -0 -0 -0 -0 -0 -0 0 0 0 0 0 0 0 0 0 -0 -0 -0 -0 -0 -0 -0 -0 -0 0 0 0 0 0 0 0 0 0
0 -0 -0 -0 0 0 0 0 0 -0 -0 -0 -0 -0 -0 -0 0 0 0 0 0 0 0 0 0 -0 -0 -0 -0 -0 -0 -0 -0 -0 0 0 0 0 0 0 0 0 0
0 0 0 0 0 0 0 0 0 0 -0 -0 -0 -0 -0 0 0 0 0 -0 -0 0 0 -0 0 0 -0 -0 -0 -0 -0 -0 -0 0 0 0 0 -0 0 0 0 0 0
Wind_Speed_500mb
93 90 85 76 54 69 84 81 75 65 67 67 64 66 68 63 61 61 59 60 68 61 72 75 62 58 54 57 59 61 63 62 53 50 50 46 46 45 44 37 38 38 42
77 81 82 96 86 69 82 80 79 80 76 67 63 59 58 66 67 68 66 68 67 69 73 71 65 56 55 60 55 59 64 57 56 53 50 43 45 47 42 40 43 43 42
72 83 82 65 60 55 77 80 81 78 75 64 56 52 60 73 71 72 58 63 64 63 67 69 59 53 53 60 59 60 58 60 54 53 41 19 16 11 21 31 40 42 38
64 71 95 84 75 48 47 73 69 63 62 55 52 59 61 65 73 73 55 66 66 61 61 64 55 48 51 51 59 54 61 54 56 54 52 49 27 17 11 21 22 24 26
67 58 83 76 74 63 44 52 53 54 56 61 64 66 64 63 67 53 57 66 66 59 58 56 47 49 51 47 51 53 56 59 52 49 42 37 33 23 24 26 22 24 29
73 69 65 62 73 78 74 64 52 56 61 68 71 64 65 59 58 49 57 67 63 61 53 48 40 41 48 39 46 44 42 42 47 49 34 31 37 31 26 26 25 26 20
69 62 84 87 84 82 83 81 82 78 69 68 68 68 69 60 56 57 62 67 67 57 51 47 44 43 48 39 41 39 40 39 41 39 40 34 31 29 24 25 20 20 10
71 80 66 69 91 91 88 81 71 71 69 71 76 81 69 58 52 68 68 70 63 55 49 45 41 42 41 35 39 36 38 37 34 38 38 38 32 32 25 25 19 16 16
81 78 76 63 69 91 90 74 75 75 72 72 73 71 65 57 64 70 58 64 54 43 38 38 37 41 41 43 33 34 32 32 30 32 36 39 36 28 21 21 21 13 14
78 79 69 59 43 45 47 55 71 75 68 59 61 62 58 58 65 59 57 51 41 34 35 38 41 39 35 35 28 25 26 31 30 27 27 31 32 32 26 28 17 14 19
76 61 41 43 45 41 47 57 53 62 53 54 51 46 46 52 54 49 43 39 37 39 41 42 38 37 32 22 21 26 27 26 26 28 31 29 27 26 24 31 22 15 21
62 69 45 50 36 45 46 48 62 55 50 44 38 39 47 53 53 47 46 41 40 37 41 39 37 29 23 26 25 23 26 28 32 33 32 27 26 20 23 25 22 14 21
71 74 71 91 35 38 54 62 62 56 50 39 46 51 56 54 54 52 46 48 42 41 37 29 27 29 22 19 19 17 23 28 28 29 26 24 28 26 24 27 23 20 20
83 59 83 76 48 45 55 60 61 58 51 55 54 54 58 57 55 57 55 44 44 37 34 35 27 24 24 20 16 16 19 24 25 25 29 26 26 26 23 26 27 20 28
102 88 47 56 59 60 71 64 63 60 59 59 59 63 53 53 54 49 43 44 43 38 32 31 31 27 20 19 22 20 24 22 21 22 23 24 28 23 26 29 31 31 35
90 61 32 24 30 52 56 71 65 68 70 61 56 56 59 55 53 48 44 39 36 36 34 37 30 21 19 22 22 24 16 12 14 17 19 25 20 16 23 27 27 31 38
61 52 31 22 31 77 70 71 74 67 72 70 65 60 55 52 46 41 38 39 36 39 37 28 23 21 23 20 17 12 7 7 13 21 25 24 14 21 24 27 30 26 21
34 40 31 15 28 70 78 80 81 78 68 64 59 54 50 48 41 41 42 40 39 36 29 25 22 19 16 14 14 10 10 16 23 30 26 22 23 26 25 27 28 29 27
41 43 41 3 25 44 73 83 78 74 69 63 57 51 49 44 44 47 44 39 37 33 32 26 20 14 14 16 15 13 15 18 23 28 23 24 27 31 26 27 36 32 26
60 65 51 9 61 46 88 77 68 59 62 62 61 46 41 42 45 44 44 36 30 30 26 25 19 13 14 19 17 14 10 18 19 25 25 22 23 39 34 28 33 36 26
71 68 57 24 67 71 65 70 61 61 62 62 43 46 38 41 44 42 35 28 26 29 28 23 16 15 17 19 18 15 11 15 20 21 27 25 27 34 38 30 32 32 31
73 60 59 33 57 72 73 65 59 67 63 51 45 40 40 47 44 39 33 33 29 32 29 24 21 12 16 16 17 15 15 16 15 22 28 23 33 35 33 31 27 27 30
69 48 55 38 49 59 57 65 79 66 61 52 43 42 40 47 41 35 41 36 30 33 28 23 21 17 16 13 18 19 19 19 19 25 27 32 33 30 29 28 24 24 30
52 50 10 54 38 43 55 64 62 60 56 51 49 52 42 41 35 32 31 35 34 32 32 27 22 19 19 16 19 21 23 24 19 34 38 38 35 31 26 26 25 28 28
39 39 58 71 57 61 64 57 55 59 55 46 43 49 46 39 35 32 31 30 28 32 33 27 20 12 25 21 15 17 20 26 35 45 43 40 37 35 29 27 25 28 29
18 40 33 54 67 71 61 55 58 54 47 47 48 40 33 33 29 28 27 28 27 29 24 21 16 20 20 25 20 20 30 40 41 41 46 44 39 33 31 24 26 24 24
Wind_Direction_500mb
256 261 263 256 265 260 246 244 236 230 236 231 232 243 249 253 254 255 259 255 245 249 256 252 248 245 252 244 234 235 235 239 235 241 249 250 256 261 266 260 245 260 270
242 247 263 258 262 265 245 233 231 230 232 229 235 240 246 253 258 266 268 264 252 244 248 249 244 244 246 236 234 232 234 239 240 244 248 256 259 265 262 256 253 260 266
243 237 246 253 254 279 252 234 225 220 227 236 236 242 249 252 258 258 254 250 247 246 245 250 243 243 247 234 232 232 233 236 234 234 234 228 231 241 243 238 250 261 270
267 259 242 246 254 271 256 230 217 220 230 238 244 243 242 254 260 253 246 240 241 239 248 250 247 242 243 231 234 232 232 235 236 238 235 241 247 267 258 252 249 259 284
269 265 241 240 248 250 233 223 223 227 231 241 250 255 251 265 263 258 247 230 232 240 244 242 239 246 223 227 232 230 234 240 233 237 240 235 236 253 261 256 261 279 296
281 255 251 245 251 258 243 237 235 240 247 252 251 255 259 258 254 242 235 229 232 234 239 239 228 220 213 224 229 234 234 242 234 225 229 240 241 243 240 244 263 280 290
283 283 259 255 245 248 248 248 248 251 247 248 248 254 253 255 243 232 230 226 229 231 234 232 215 210 216 222 232 223 228 227 220 225 230 229 233 243 257 249 260 266 264
292 282 282 261 240 238 245 248 250 252 251 250 252 248 246 247 228 226 231 235 238 246 237 229 215 209 210 219 217 214 221 222 227 224 227 227 225 233 247 245 247 242 246
314 278 279 274 244 238 237 237 238 238 241 241 240 232 234 232 218 225 232 236 238 238 231 205 194 186 201 208 214 209 213 222 228 227 232 229 230 232 240 233 237 253 224
324 284 265 255 246 219 223 225 232 231 230 223 219 222 223 224 230 226 227 226 234 210 185 177 178 188 188 194 202 217 223 230 228 229 234 235 231 236 233 233 225 242 228
326 311 280 240 225 220 220 226 224 216 203 205 209 217 218 217 210 210 214 203 177 173 177 178 175 174 175 195 221 229 222 224 229 235 242 237 235 229 226 229 231 222 208
325 318 310 297 225 230 218 209 197 194 193 196 201 207 196 191 193 196 190 174 171 170 172 166 165 167 187 215 227 232 237 237 242 246 246 239 227 216 231 219 211 203 206
313 309 289 284 205 185 178 176 177 177 174 178 186 181 182 183 187 183 175 167 165 159 159 157 178 193 197 202 228 242 237 244 245 244 241 233 220 246 216 213 200 202 201
292 285 285 264 226 212 184 169 169 171 172 178 176 173 171 174 175 168 170 167 158 155 168 171 183 191 191 203 220 245 247 254 254 247 228 218 237 208 207 196 195 188 172
287 289 249 248 227 223 188 173 173 166 171 171 166 160 161 162 159 158 157 155 158 163 173 175 168 180 200 212 236 255 269 263 241 218 229 225 203 201 206 188 186 184 182
275 294 299 270 243 217 171 160 165 162 157 158 156 159 160 154 151 149 158 160 171 168 172 172 179 188 203 227 248 263 247 235 217 209 194 184 188 196 183 184 188 197 191
307 335 309 268 170 149 186 160 151 151 151 150 151 154 153 151 149 155 161 165 168 167 171 181 192 203 214 237 243 218 193 147 151 156 158 162 156 152 160 160 178 184 184
331 329 339 311 195 170 158 150 145 146 143 147 148 151 157 156 156 161 162 167 169 172 181 182 194 208 215 213 194 167 144 138 134 149 153 156 149 145 152 156 162 157 162
330 311 329 311 223 162 146 140 141 142 142 147 153 160 158 154 161 165 166 174 175 172 180 194 197 201 196 183 177 165 160 156 152 164 159 156 167 151 161 162 159 155 160
327 326 325 248 160 160 143 142 142 148 148 158 160 159 156 160 165 162 164 170 177 176 181 182 179 173 182 171 172 168 164 179 170 179 184 182 168 157 159 162 163 161 157
321 328 324 296 168 150 141 145 144 153 161 164 151 152 155 162 166 164 165 174 172 170 168 172 167 171 171 172 171 178 191 184 173 172 174 170 163 164 165 172 172 164 156
325 329 317 275 172 154 145 148 148 145 144 142 141 145 157 166 163 166 169 165 166 173 171 174 152 155 153 157 152 157 167 163 171 167 168 170 160 167 165 164 169 173 164
318 314 318 241 167 153 153 146 138 138 138 143 143 147 153 158 162 166 169 176 177 185 185 189 165 162 156 155 152 154 158 161 162 164 168 156 155 156 152 158 160 170 172
321 319 226 217 177 155 147 139 138 138 142 143 145 151 157 152 151 165 182 183 186 192 193 182 167 177 165 161 156 163 169 172 158 163 156 153 152 151 156 161 167 171 179
319 249 200 190 160 148 147 141 141 143 143 148 150 148 153 157 169 176 180 185 188 197 203 192 175 190 165 152 152 164 172 167 163 156 151 156 155 153 157 162 172 175 178
220 207 237 148 153 151 141 145 144 149 148 151 154 153 160 169 172 175 168 163 165 170 181 178 178 168 155 145 139 138 141 148 152 152 156 154 155 153 156 158 164 171 174
Wind_Speed_850mb
93 90 85 76 54 69 84 81 75 65 67 67 64 66 68 63 61 61 59 60 68 61 72 75 62 58 54 57 59 61 63 62 53 50 50 46 46 45 44 37 38 38 42
77 81 82 96 86 69 82 80 79 80 76 67 63 59 58 66 67 68 66 68 67 69 73 71 65 56 55 60 55 59 64 57 56 53 50 43 45 47 42 40 43 43 42
72 83 82 65 60 55 77 80 81 78 75 64 56 52 60 73 71 72 58 63 64 63 67 69 59 53 53 60 59 60 58 60 54 53 41 19 16 11 21 31 40 42 38
64 71 95 84 75 48 47 73 69 63 62 55 52 59 61 65 73 73 55 66 66 61 61 64 55 48 51 51 59 54 61 54 56 54 52 49 27 17 11 21 22 24 26
67 58 83 76 74 63 44 52 53 54 56 61 64 66 64 63 67 53 57 66 66 59 58 56 47 49 51 47 51 53 56 59 52 49 42 37 33 23 24 26 22 24 29
73 69 65 62 73 78 74 64 52 56 61 68 71 64 65 59 58 49 57 67 63 61 53 48 40 41 48 39 46 44 42 42 47 49 34 31 37 31 26 26 25 26 20
69 62 84 87 84 82 83 81 82 78 69 68 68 68 69 60 56 57 62 67 67 57 51 47 44 43 48 39 41 39 40 39 41 39 40 34 31 29 24 25 20 20 10
71 80 66 69 91 91 88 81 71 71 69 71 76 81 69 58 52 68 68 70 63 55 49 45 41 42 41 35 39 36 38 37 34 38 38 38 32 32 25 25 19 16 16
81 78 76 63 69 91 90 74 75 75 72 72 73 71 65 57 64 70 58 64 54 43 38 38 37 41 41 43 33 34 32 32 30 32 36 39 36 28 21 21 21 13 14
78 79 69 59 43 45 47 55 71 75 68 59 61 62 58 58 65 59 57 51 41 34 35 38 41 39 35 35 28 25 26 31 30 27 27 31 32 32 26 28 17 14 19
76 61 41 43 45 41 47 57 53 62 53 54 51 46 46 52 54 49 43 39 37 39 41 42 38 37 32 22 21 26 27 26 26 28 31 29 27 26 24 31 22 15 21
62 69 45 50 36 45 46 48 62 55 50 44 38 39 47 53 53 47 46 41 40 37 41 39 37 29 23 26 25 23 26 28 32 33 32 27 26 20 23 25 22 14 21
71 74 71 91 35 38 54 62 62 56 50 39 46 51 56 54 54 52 46 48 42 41 37 29 27 29 22 19 19 17 23 28 28 29 26 24 28 26 24 27 23 20 20
83 59 83 76 48 45 55 60 61 58 51 55 54 54 58 57 55 57 55 44 44 37 34 35 27 24 24 20 16 16 19 24 25 25 29 26 26 26 23 26 27 20 28
102 88 47 56 59 60 71 64 63 60 59 59 59 63 53 53 54 49 43 44 43 38 32 31 31 27 20 19 22 20 24 22 21 22 23 24 28 23 26 29 31 31 35
90 61 32 24 30 52 56 71 65 68 70 61 56 56 59 55 53 48 44 39 36 36 34 37 30 21 19 22 22 24 16 12 14 17 19 25 20 16 23 27 27 31 38
61 52 31 22 31 77 70 71 74 67 72 70 65 60 55 52 46 41 38 39 36 39 37 28 23 21 23 20 17 12 7 7 13 21 25 24 14 21 24 27 30 26 21
34 40 31 15 28 70 78 80 81 78 68 64 59 54 50 48 41 41 42 40 39 36 29 25 22 19 16 14 14 10 10 16 23 30 26 22 23 26 25 27 28 29 27
41 43 41 3 25 44 73 83 78 74 69 63 57 51 49 44 44 47 44 39 37 33 32 26 20 14 14 16 15 13 15 18 23 28 23 24 27 31 26 27 36 32 26
60 65 51 9 61 46 88 77 68 59 62 62 61 46 41 42 45 44 44 36 30 30 26 25 19 13 14 19 17 14 10 18 19 25 25 22 23 39 34 28 33 36 26
71 68 57 24 67 71 65 70 61 61 62 62 43 46 38 41 44 42 35 28 26 29 28 23 16 15 17 19 18 15 11 15 20 21 27 25 27 34 38 30 32 32 31
73 60 59 33 57 72 73 65 59 67 63 51 45 40 40 47 44 39 33 33 29 32 29 24 21 12 16 16 17 15 15 16 15 22 28 23 33 35 33 31 27 27 30
69 48 55 38 49 59 57 65 79 66 61 52 43 42 40 47 41 35 41 36 30 33 28 23 21 17 16 13 18 19 19 19 19 25 27 32 33 30 29 28 24 24 30
52 50 10 54 38 43 55 64 62 60 56 51 49 52 42 41 35 32 31 35 34 32 32 27 22 19 19 16 19 21 23 24 19 34 38 38 35 31 26 26 25 28 28
39 39 58 71 57 61 64 57 55 59 55 46 43 49 46 39 35 32 31 30 28 32 33 27 20 12 25 21 15 17 20 26 35 45 43 40 37 35 29 27 25 28 29
18 40 33 54 67 71 61 55 58 54 47 47 48 40 33 33 29 28 27 28 27 29 24 21 16 20 20 25 20 20 30 40 41 41 46 44 39 33 31 24 26 24 24
Wind_Direction_850mb
256 261 263 256 265 260 246 244 236 230 236 231 232 243 249 253 254 255 259 255 245 249 256 252 248 245 252 244 234 235 235 239 235 241 249 250 256 261 266 260 245 260 270
242 247 263 258 262 265 245 233 231 230 232 229 235 240 246 253 258 266 268 264 252 244 248 249 244 244 246 236 234 232 234 239 240 244 248 256 259 265 262 256 253 260 266
243 237 246 253 254 279 252 234 225 220 227 236 236 242 249 252 258 258 254 250 247 246 245 250 243 243 247 234 232 232 233 236 234 234 234 228 231 241 243 238 250 261 270
267 259 242 246 254 271 256 230 217 220 230 238 244 243 242 254 260 253 246 240 241 239 248 250 247 242 243 231 234 232 232 235 236 238 235 241 247 267 258 252 249 259 284
269 265 241 240 248 250 233 223 223 227 231 241 250 255 251 265 263 258 247 230 232 240 244 242 239 246 223 227 232 230 234 240 233 237 240 235 236 253 261 256 261 279 296
281 255 251 245 251 258 243 237 235 240 247 252 251 255 259 258 254 242 235 229 232 234 239 239 228 220 213 224 229 234 234 242 234 225 229 240 241 243 240 244 263 280 290
283 283 259 255 245 248 248 248 248 251 247 248 248 254 253 255 243 232 230 226 229 231 234 232 215 210 216 222 232 223 228 227 220 225 230 229 233 243 257 249 260 266 264
292 282 282 261 240 238 245 248 250 252 251 250 252 248 246 247 228 226 231 235 238 246 237 229 215 209 210 219 217 214 221 222 227 224 227 227 225 233 247 245 247 242 246
314 278 279 274 244 238 237 237 238 238 241 241 240 232 234 232 218 225 232 236 238 238 231 205 194 186 201 208 214 209 213 222 228 227 232 229 230 232 240 233 237 253 224
324 284 265 255 246 219 223 225 232 231 230 223 219 222 223 224 230 226 227 226 234 210 185 177 178 188 188 194 202 217 223 230 228 229 234 235 231 236 233 233 225 242 228
326 311 280 240 225 220 220 226 224 216 203 205 209 217 218 217 210 210 214 203 177 173 177 178 175 174 175 195 221 229 222 224 229 235 242 237 235 229 226 229 231 222 208
325 318 310 297 225 230 218 209 197 194 193 196 201 207 196 191 193 196 190 174 171 170 172 166 165 167 187 215 227 232 237 237 242 246 246 239 227 216 231 219 211 203 206
313 309 289 284 205 185 178 176 177 177 174 178 186 181 182 183 187 183 175 167 165 159 159 157 178 193 197 202 228 242 237 244 245 244 241 233 220 246 216 213 200 202 201
292 285 285 264 226 212 184 169 169 171 172 178 176 173 171 174 175 168 170 167 158 155 168 171 183 191 191 203 220 245 247 254 254 247 228 218 237 208 207 196 195 188 172
287 289 249 248 227 223 188 173 173 166 171 171 166 160 161 162 159 158 157 155 158 163 173 175 168 180 200 212 236 255 269 263 241 218 229 225 203 201 206 188 186 184 182
275 294 299 270 243 217 171 160 165 162 157 158 156 159 160 154 151 149 158 160 171 168 172 172 179 188 203 227 248 263 247 235 217 209 194 184 188 196 183 184 188 197 191
307 335 309 268 170 149 186 160 151 151 151 150 151 154 153 151 149 155 161 165 168 167 171 181 192 203 214 237 243 218 193 147 151 156 158 162 156 152 160 160 178 184 184
331 329 339 311 195 170 158 150 145 146 143 147 148 151 157 156 156 161 162 167 169 172 181 182 194 208 215 213 194 167 144 138 134 149 153 156 149 145 152 156 162 157 162
330 311 329 311 223 162 146 140 141 142 142 147 153 160 158 154 161 165 166 174 175 172 180 194 197 201 196 183 177 165 160 156 152 164 159 156 167 151 161 162 159 155 160
327 326 325 248 160 160 143 142 142 148 148 158 160 159 156 160 165 162 164 170 177 176 181 182 179 173 182 171 172 168 164 179 170 179 184 182 168 157 159 162 163 161 157
321 328 324 296 168 150 141 145 144 153 161 164 151 152 155 162 166 164 165 174 172 170 168 172 167 171 171 172 171 178 191 184 173 172 174 170 163 164 165 172 172 164 156
325 329 317 275 172 154 145 148 148 145 144 142 141 145 157 166 163 166 169 165 166 173 171 174 152 155 153 157 152 157 167 163 171 167 168 170 160 167 165 164 169 173 164
318 314 318 241 167 153 153 146 138 138 138 143 143 147 153 158 162 166 169 176 177 185 185 189 165 162 156 155 152 154 158 161 162 164 168 156 155 156 152 158 160 170 172
321 319 226 217 177 155 147 139 138 138 142 143 145 151 157 152 151 165 182 183 186 192 193 182 167 177 165 161 156 163 169 172 158 163 156 153 152 151 156 161 167 171 179
319 249 200 190 160 148 147 141 141 143 143 148 150 148 153 157 169 176 180 185 188 197 203 192 175 190 165 152 152 164 172 167 163 156 151 156 155 153 157 162 172 175 178
220 207 237 148 153 151 141 145 144 149 148 151 154 153 160 169 172 175 168 163 165 170 181 178 178 168 155 145 139 138 141 148 152 152 156 154 155 153 156 158 164 171 174